Flag for Germany Weather past 2 weeks in Homberg (Efze), Hesse, Germany

Now
54 °F

Passing clouds.


Feels Like: 54 °F
Forecast: 56 / 82 °F
Wind: 2 mph from Northwest

Location: Fritzlar

Current Time: Jun 30, 2015 at 5:30:14 AM

Latest Report: Jun 30, 2015 at 5:00 AM


Visibility: 16 mi

Pressure: 30.19 "Hg

Humidity: 87%

Dew point: 51 °F

Location of Homberg (Efze)Location

Historic Weather in Homberg (Efze) — Graph

°F

Homberg (Efze) temperature yesterday

Maximum temperature yesterday: 80 °F (at 3:00 PM)
Minimum temperature yesterday: 57 °F (at 6:00 AM)
Average temperature yesterday: 68 °F

Past Weeks' High & Low Weather Summary

 TemperatureHumidityPressure
High80 °F (Jun 29, 3:00 PM)97% (Jun 22, 4:00 AM)30.32 "Hg (Jun 22, 4:00 AM)
Low41 °F (Jun 17, 6:00 AM)35% (Jun 17, 6:00 PM)29.67 "Hg (Jun 23, 1:00 AM)
Average59 °F71%30.07 "Hg
* Reported Jun 15 4:00 AM — Jun 30 4:00 AM, Homberg (Efze), Weather by CustomWeather, © 2015

Note: Actual official high and low records may vary slightly from our data, if they occured in-between our weather recording intervals... More about our weather records

Advertising

Homberg (Efze) weather history for previous 24 hours

 ConditionsComfort  
Time TempWeatherWind HumidityBarometerVisibility
4:00 AM
Tue, Jun 30
56 °FOvercast.3 mph84%30.19 "Hg11 mi
3:00 AM56 °FOvercast.2 mph83%30.19 "Hg11 mi
2:00 AM56 °FPassing clouds.3 mph85%30.20 "Hg11 mi
1:00 AM56 °FPassing clouds.2 mph85%30.20 "Hg11 mi
12:00 AM59 °FPassing clouds.2 mph76%30.20 "Hg11 mi
10:00 PM
Mon, Jun 29
70 °FPassing clouds.2 mph51%30.17 "Hg16 mi
9:00 PM73 °FOvercast.5 mph46%30.14 "Hg19 mi
8:00 PM75 °FPartly sunny.5 mph46%30.13 "Hg19 mi
7:00 PM74 °FPartly sunny.5 mph49%30.11 "Hg19 mi
6:00 PM77 °FPartly sunny.6 mph46%30.10 "Hg19 mi
5:00 PM78 °FPartly sunny.7 mph44%30.09 "Hg19 mi
4:00 PM77 °FOvercast.2 mph43%30.09 "Hg22 mi
3:00 PM80 °FPartly sunny.3 mph43%30.09 "Hg22 mi
2:00 PM76 °FOvercast.3 mph49%30.10 "Hg22 mi
1:00 PM76 °FOvercast.5 mph47%30.11 "Hg19 mi
12:00 PM74 °FOvercast.2 mph51%30.11 "Hg19 mi
11:00 AM72 °FOvercast.2 mph56%30.12 "Hg19 mi
10:00 AM69 °FPartly sunny.5 mph62%30.13 "Hg19 mi
9:00 AM65 °FScattered clouds.2 mph70%30.13 "Hg16 mi
8:00 AM63 °FPartly sunny.1 mph79%30.14 "Hg16 mi
7:00 AM58 °FPartly sunny.1 mph93%30.14 "Hg16 mi
6:00 AM57 °FOvercast.1 mph94%30.14 "Hg19 mi
5:00 AM58 °FLight rain. Overcast.N/A91%30.13 "Hg19 mi
Weather by CustomWeather, © 2015

See weather overviewHow to use our weather pages